This demonstration page uses our WeatherBlox Daily Observations layout. Learn more.

Left ArrowRight Arrow

Hourly Observations for October 3, 2021

Temp ( °F °C ) Dew Point ( °F °C ) Humidity (%) Winds ( mph kmh ) Pressure ( in mb ) Visibility ( mi km ) Precip ( " mm )
12:56 am 00:56 Clear 51 10.6 46 7.8 83 83 WNW 5 7 30.08 1019 10 16 N/A
1:56 am 01:56 Clear 49 9.4 45 7.2 86 86 NW 6 9 30.08 1019 10 16 N/A
2:56 am 02:56 Clear 48 8.9 45 7.2 89 89 NW 7 11 30.08 1019 10 16 N/A
3:56 am 03:56 Clear 46 7.8 44 6.7 93 93 WNW 7 11 30.08 1019 10 16 N/A
4:56 am 04:56 Clear 48 8.9 44 6.7 86 86 NW 7 11 30.06 1018 10 16 N/A
5:56 am 05:56 Clear 46 7.8 43 6.1 89 89 WNW 6 9 30.09 1019 10 16 N/A
6:56 am 06:56 Clear 45 7.2 42 5.6 90 90 NW 6 9 30.09 1019 10 16 N/A
7:56 am 07:56 Sunny 45 7.2 42 5.6 90 90 NW 5 7 30.10 1019 10 16 N/A
8:56 am 08:56 Sunny 51 10.6 46 7.8 83 83 WNW 7 11 30.11 1020 10 16 N/A
9:56 am 09:56 Sunny 55 12.8 48 8.9 77 77 WNW 5 7 30.12 1020 10 16 N/A
10:56 am 10:56 Sunny 64 17.8 51 10.6 63 63 NNW 5 7 30.11 1020 10 16 N/A
11:56 am 11:56 Sunny 72 22.2 49 9.4 44 44 N N/A 30.10 1019 10 16 N/A
12:56 pm 12:56 Sunny 76 24.4 43 6.1 31 31 N 6 9 30.08 1019 10 16 N/A
1:56 pm 13:56 Sunny 77 25 42 5.6 29 29 VRB 3 6 30.06 1018 10 16 N/A
2:56 pm 14:56 Sunny 79 26.1 42 5.6 27 27 WNW 9 15 30.04 1017 10 16 N/A
3:56 pm 15:56 Sunny 78 25.6 41 5 27 27 ENE 3 6 30.03 1017 10 16 N/A
4:56 pm 16:56 Sunny 79 26.1 41 5 26 26 WNW 7 11 30.01 1016 10 16 N/A
7:30 pm 19:30 Clear 72 22 43 6 36 36 N N/A 29.96 1015 10 16 N/A
7:35 pm 19:35 Clear 72 22 43 6 36 36 N N/A 29.96 1015 10 16 N/A
7:55 pm 19:55 Clear 70 21 43 6 38 38 N N/A 29.97 1015 10 16 N/A
8:56 pm 20:56 Clear 60 15.6 47 8.3 62 62 N N/A 30.04 1017 10 16 N/A
9:56 pm 21:56 Clear 58 14.4 47 8.3 67 67 S 7 11 30.05 1018 10 16 N/A
10:56 pm 22:56 Clear 58 14.4 45 7.2 62 62 S 7 11 30.04 1017 10 16 N/A
11:56 pm 23:56 Clear 58 14.4 44 6.7 60 60 SSW 7 11 30.04 1017 10 16 N/A

Powered by AerisWeather